Regional Weather Roundup
Issued by NWS

Home | Current Version | Previous Version | Text Only | Print | Product List | Glossary Off
Versions: 1 2 3 4 5 6 7 8 9 10 11 12 13 14 15 16 17 18 19 20 21 22 23 24 25 26 27 28 29 30 31 32 33 34 35 36 37 38 39 40 41 42 43 44 45 46 47 48 49 50

000
ASUS43 KMPX 200310
RWRMN
WEATHER ROUNDUP FOR MINNESOTA
NATIONAL WEATHER SERVICE TWIN CITIES/CHANHASSEN MN
1000 PM CDT SAT MAY 19 2018


NOTE: "FAIR" INDICATES FEW OR NO CLOUDS BELOW 12,000 FEET WITH NO
SIGNIFICANT WEATHER AND/OR OBSTRUCTIONS TO VISIBILITY. N/A MEANS
CURRENT SKY AND/OR WEATHER CONDITIONS ARE NOT AVAILABLE.

MNZ060>063-068>070-200400-
   Twin Cities Metro

CITY           SKY/WX    TMP DP  RH WIND       PRES   REMARKS
TWIN CITIES    CLOUDY    54  43  66 NE16      30.12R
ST PAUL        CLOUDY    53  41  63 NE13      30.14R
CRYSTAL        CLOUDY    52  41  66 NE7       30.13R
BLAINE         FAIR      54  43  66 NE9       30.13R
LAKEVILLE      CLOUDY    52  43  71 NE13      30.10S
EDEN PRAIRIE   CLOUDY    54  42  64 NE13G24   30.11R
SOUTH ST PAUL  CLOUDY    53  41  64 NE12G17   30.12R
LAKE ELMO      CLOUDY    52  43  71 NE10      30.13R
$$
MNZ001>005-007-008-013>017-022>024-027-028-200400-
   Northwest Minnesota

CITY           SKY/WX    TMP DP  RH WIND       PRES   REMARKS
BEMIDJI        FAIR      45  34  66 CALM      30.20R
HALLOCK        FAIR      55  37  50 CALM      30.19R
ROSEAU         FAIR      52  43  71 CALM      30.19R
WARROAD        FAIR      48  43  81 S3        30.19S
THIEF RVR FALL FAIR      54  35  48 CALM      30.21R
CROOKSTON      FAIR      55  37  50 CALM      30.21R
FOSSTON        FAIR      48  34  57 CALM      30.21R
DETROIT LAKES  FAIR      54  34  47 N3        30.20R
MOORHEAD       FAIR      54  32  43 NE6       30.20R
PARK RAPIDS    FAIR      54  32  43 NE5       30.19R
MAHNOMEN       FAIR      52  35  51 NE6       30.19R
$$
MNZ006-009>011-018-025>026-200400-
   North Central Minnesota

CITY           SKY/WX    TMP DP  RH WIND       PRES   REMARKS
BAUDETTE       FAIR      46  40  79 CALM      30.18R
FLAG ISLAND    FAIR      52  39  62 SW8       30.17R
INTL FALLS     FAIR      41  38  89 CALM      30.19R
WASKISH        FAIR      46  37  71 SE3       30.20R
BIG FORK       FAIR      43  36  75 CALM      30.20R
LONGVILLE      FAIR      45  37  76 CALM      30.19R
GRAND RAPIDS   FAIR      45  36  70 CALM      30.21R
CRANE LAKE     FAIR      39  36  87 CALM      30.21R
ORR            FAIR      43  34  70 CALM      30.17R
COOK           FAIR      45  36  70 CALM      30.20R
WALKER         FAIR      50  32  50 N3        30.19R
$$
MNZ012-019>021-037-200400-
   Northeast Minnesota

CITY           SKY/WX    TMP DP  RH WIND       PRES   REMARKS
DULUTH         FAIR      44  35  70 E3        30.18R
ELY            FAIR      41  36  81 CALM      30.19R
HIBBING        FAIR      39  33  79 CALM      30.19R
EVELETH        FAIR      41  34  75 CALM      30.20R
DULUTH HARBOR  FAIR      45  39  81 NE9       30.20R
TWO HARBORS    FAIR      45  37  76 N3        30.18R
SILVER BAY     FAIR      45  37  76 NE3       30.19R
GRAND MARAIS     N/A     38  34  85 NW5       30.22R
G MARAIS ARPRT FAIR      39  30  70 CALM      30.21R
$$
MNZ029>031-032-039>041-046>048-054>057-064-200400-
   West Central Minnesota

CITY           SKY/WX    TMP DP  RH WIND       PRES   REMARKS
FERGUS FALLS   FAIR      55  34  44 NE3       30.14R
WHEATON        CLOUDY    59  25  27 NE7       30.17R
MORRIS         CLOUDY    55  36  47 N8        30.14R
ALEXANDRIA     FAIR      57  34  41 NE6       30.16R
ELBOW LAKE     FAIR      57  32  39 NE7       30.16R
WADENA         FAIR      52  34  50 NE6       30.17R
GLENWOOD       FAIR      54  36  50 NE9       30.15R
APPLETON       CLOUDY    57  32  38 NE8       30.13R
BENSON         CLOUDY    57  36  44 E5        30.15R
ORTONVILLE     CLOUDY    57  36  44 NE13      30.14R
MADISON        CLOUDY    57  37  47 NE8       30.12R
WILLMAR        FAIR      55  43  62 NE12      30.15R
$$
MNZ033>034-036-042>043-049>051-058-059-200400-
   Central Minnesota

CITY           SKY/WX    TMP DP  RH WIND       PRES   REMARKS
ST CLOUD       FAIR      51  41  68 NE6       30.16R
SAUK CENTRE    FAIR      53  39  57 E7        30.16R
PAYNESVILLE    FAIR      54  44  69 NE6       30.15R
PINE RIVER     FAIR      50  34  53 N5        30.21R
BRAINERD       FAIR      51  38  60 NE5       30.17R
STAPLES        FAIR      52  30  43 NE3       30.17R
LONG PRAIRIE   FAIR      52  36  54 N5        30.16R
LITTLE FALLS   FAIR      52  37  58 CALM      30.16R
LITCHFIELD     FAIR      54  46  76 NE10      30.13R
BUFFALO        FAIR      52  40  65 N12       30.15R
MAPLE LAKE     FAIR      52  43  73 NE6       30.15R
HUTCHINSON     FAIR      54  44  68 NE15      30.12S
$$
MNZ037-044-045-052-053-200400-
   East Central Minnesota

CITY           SKY/WX    TMP DP  RH WIND       PRES   REMARKS
PRINCETON      FAIR      52  43  71 NE5       30.16R
MORA           FAIR      45  37  76 CALM      30.18R
CAMBRIDGE      FAIR      54  39  58 NE3       30.15R
RUSH CITY      MOCLDY    47  40  76 NE3       30.16R
MOOSE LAKE     FAIR      45  37  76 N3        30.16R
HINCKLEY       FAIR      46  41  81 NE3       30.17R
CLOQUET        FAIR      43  36  75 NE3       30.19R
MCGREGOR       FAIR      46  39  76 E6        30.19R
$$
MNZ071>073-080-081-089-090-097-098-200400-
   Southwest Minnesota

CITY           SKY/WX    TMP DP  RH WIND       PRES   REMARKS
MONTEVIDEO     CLOUDY    55  39  54 E9        30.12R
GRANITE FALLS  CLOUDY    58  45  62 NE12G18   30.12S
CANBY          CLOUDY    58  42  55 NE10      30.12R
MARSHALL       CLOUDY    56  45  66 E13       30.10R
REDWOOD FALLS  CLOUDY    56  45  66 NE13G20   30.09S
OLIVIA         CLOUDY    55  43  62 NE10G20   30.10R
PIPESTONE      CLOUDY    55  46  71 E10G21    30.07R
WINDOM         MOCLDY    55  37  50 NE14G20   30.06R
WORTHINGTON    CLOUDY    55  47  74 NE20      30.07R
JACKSON        CLOUDY    54  46  76 NE14      30.06R
TRACY          CLOUDY    57  48  73 NE14G20   30.08R
SLAYTON        CLOUDY    55  47  73 NE15G24   30.08R
$$
MNZ065>067-074>077-082>085-091>093-200400-
   South Central Minnesota

CITY           SKY/WX    TMP DP  RH WIND       PRES   REMARKS
MANKATO        CLOUDY    54  45  71 NE20G25   30.06S
NEW ULM        CLOUDY    55  43  62 NE14      30.08R
ST JAMES       CLOUDY    55  46  71 NE14      30.09R
FAIRMONT       CLOUDY    56  48  74 NE15      30.06R
GLENCOE        CLOUDY    55  45  68 NE9G16    30.10S
FARIBAULT      CLOUDY    54  45  71 N7        30.07S
OWATONNA       CLOUDY    54  45  71 NE13G26   30.05S
WASECA         CLOUDY    52  43  71 N24       30.06S
ALBERT LEA     CLOUDY    54  45  71 N16G23    30.05R
$$
MNZ078>079-086>088-094>096-200400-
   Southeast Minnesota

CITY           SKY/WX    TMP DP  RH WIND       PRES   REMARKS
ROCHESTER      CLOUDY    53  44  71 N22       30.05R
RED WING       CLOUDY    52  37  58 NE7       30.10R
STANTON        CLOUDY    53  43  67 NE18G28   30.08R
DODGE CENTER   CLOUDY    52  43  71 N18       30.05R
WINONA         CLOUDY    54  43  66 NE9       30.05R
AUSTIN         FAIR      54  45  71 NE14G21   30.04R
PRESTON        MOCLDY    54  45  71 NE12G24   30.04R
$$
ABBREVIATIONS USED IN REMARKS
   TC - TEMPERATURES IN CELSIUS
  WCI - WIND CHILL INDEX
   HX - HEAT INDEX
  VSB - VISIBILITY
$$




USA.gov is the U.S. government's official web portal to all federal, state and local government web resources and services.